Regional Weather Roundup
Issued by NWS

Home | Current Version | Previous Version | Graphics & Text | Print | Product List | Glossary On
Versions: 1 2 3 4 5 6 7 8 9 10 11 12 13 14 15 16 17 18 19 20 21 22 23 24 25 26 27 28 29 30 31 32 33 34 35 36 37 38 39 40 41 42 43 44 45 46 47 48 49 50
000
ASUS43 KIND 272009
RWRIN

WEATHER ROUNDUP FOR INDIANA
NATIONAL WEATHER SERVICE INDIANAPOLIS IN
300 PM EST SAT DEC 27 2014

NOTE: "FAIR" INDICATES FEW OR NO CLOUDS BELOW 12,000 FEET WITH NO
SIGNIFICANT WEATHER AND/OR OBSTRUCTIONS TO VISIBILITY.

* - STATION DOES NOT REPORT WEATHER SUCH AS PRECIPITATION OR FOG.

+ - STATION NOT QUALITY CONTROLLED BY THE NATIONAL WEATHER SERVICE.
    USE DATA WITH CAUTION...ESPECIALLY DEWPOINT AND RELATIVE
    HUMIDITY OBSERVATIONS.

INZ001>003-010>013-019-020-272100-
NORTHWEST INDIANA

CITY           SKY/WX    TMP DP  RH WIND       PRES   REMARKS
GARY /AIRPORT/ CLOUDY    41  30  65 W21G36    29.98F
KNOX *+        CLOUDY    48  44  83 SW20      29.96F
LA PORTE +     CLOUDY    46  46 100 W16G30    29.97R
MICHIGAN CITY+ CLOUDY    41  37  87 W8G16     29.98R
MONTICELLO +   CLOUDY    47  46  97 SW14      30.00F
RENSSELAER +   CLOUDY    41  41 100 W17       30.03R FOG
VALPARAISO     CLOUDY    40  37  89 SW21G30   30.00R

$$

LMZ046-743>745-272100-
SOUTHERN LAKE MICHIGAN

STATION/POSITION TIME  TEMP WIND        PRES
                       AIR  DIR/SP/G
                 (UTC) (F)  (DEG/KT/KT) (MB)
MICHIGAN CITY    2000       240/ 27/ 32   N/A

$$

INZ004-005-014>016-021>024-272100-
NORTH CENTRAL INDIANA

CITY           SKY/WX    TMP DP  RH WIND       PRES   REMARKS
GOSHEN         CLOUDY    47  45  93 SW14      29.95F
LOGANSPORT +   CLOUDY    45  45 100 SW15      30.02R FOG
PERU/GRISSOM   CLOUDY    47  47 100 SW15      30.00F
ROCHESTER +    CLOUDY    50  48  93 SW14      30.00R
SOUTH BEND     CLOUDY    49  46  90 SW14      29.95F
WARSAW +       CLOUDY    46  45  93 SW12G17   29.98F

$$

INZ006>009-017-018-025>027-272100-
NORTHEAST INDIANA

CITY           SKY/WX    TMP DP  RH WIND       PRES   REMARKS
ANGOLA *+      CLOUDY    46  45  93 SW13      29.96F
AUBURN +       CLOUDY    46  43  87 SW9       30.00F
FORT WAYNE     CLOUDY    46  44  93 SW13      30.01F
HUNTINGTON +   CLOUDY    46  41  84 SW9G17    29.99F

$$

INZ028-029-035-036-043>045-051>053-272100-
WEST CENTRAL INDIANA

CITY           SKY/WX    TMP DP  RH WIND       PRES   REMARKS
GREENCASTLE +  FOG       45  43  93 S3        30.06F VSB 1/4
LAFAYETTE      CLOUDY    47  46  97 SW7       30.02F FOG
TERRE HAUTE    CLOUDY    48  46  93 SW8       30.07F FOG

$$

INZ030>032-037>040-046>048-054>057-064-065-272100-
CENTRAL INDIANA

CITY           SKY/WX    TMP DP  RH WIND       PRES   REMARKS
CP ATTERBURY + DRIZZLE   46  45  93 MISG      30.09S
COLUMBUS       RAIN      46  45  93 S9        30.09F FOG
FRANKFORT +    CLOUDY   N/A N/A N/A S13       30.04F FOG
INDIANAPOLIS   DRZL/FOG  46  45  96 SW12      30.05F VSB 1/2
-EAGLE CREEK   CLOUDY    46  45  96 SW8       30.05F FOG
KOKOMO *+      CLOUDY    46  45  93 SW14      30.01F
MARION +       CLOUDY    47  45  94 SW10G17   30.01F
MT COMFORT *+  CLOUDY    46 N/A N/A SW12      30.07R
SHELBYVILLE    LGT RAIN  47  45  93 SW13      30.08R FOG
ZIONSVILLE +   CLOUDY    47  44  88 SW10G16   30.04F FOG

$$

INZ033-034-041-042-049-050-058-059-272100-
EAST CENTRAL INDIANA

CITY           SKY/WX    TMP DP  RH WIND       PRES   REMARKS
MUNCIE         CLOUDY    47  44  90 SW12      30.04S

$$

INZ060-061-067>069-081>083-085>088-272100-
SOUTHWEST INDIANA

CITY           SKY/WX    TMP DP  RH WIND       PRES   REMARKS
EVANSVILLE     LGT RAIN  50  47  89 SW10      30.11R
HUNTINGBURG *+ CLOUDY    46  45  93 S9        30.10F
WASHINGTON +   CLOUDY    48  44  87 SW7       30.08F

$$

INZ062-063-066-070>080-084-089>092-272100-
SOUTH CENTRAL AND SOUTHEAST INDIANA

CITY           SKY/WX    TMP DP  RH WIND       PRES   REMARKS
BLOOMINGTON    CLOUDY    47  46  97 SW7       30.08F
SEYMOUR +      RAIN      48  46  93 S7        30.09

$$




USA.gov is the U.S. government's official web portal to all federal, state and local government web resources and services.